| time (UTC) | temp F | wind direction | speed MPH | gust MPH | rain 1hr in | rain 24hr in | rain mn in | humidity % | barometer mb |
| 20260506160346 | 64 | 284 | 0.0 | 3.0 | 0.00 | 0.00 | 0.00 | 82 | 1016.1 |
| 20260506155345 | 63 | 105 | 1.0 | 3.0 | 0.00 | 0.00 | 0.00 | 84 | 1016.2 |
| 20260506154346 | 62 | 114 | 0.0 | 4.0 | 0.00 | 0.00 | 0.00 | 85 | 1016.1 |
| 20260506152345 | 61 | 114 | 1.0 | 3.0 | 0.00 | 0.00 | 0.00 | 89 | 1016.2 |
| 20260506151346 | 60 | 39 | 3.0 | 3.0 | 0.00 | 0.00 | 0.00 | 90 | 1016.3 |
| 20260506145345 | 59 | 55 | 1.0 | 2.0 | 0.00 | 0.00 | 0.00 | 91 | 1016.3 |
| 20260506144346 | 58 | 36 | 0.0 | 3.0 | 0.00 | 0.00 | 0.00 | 92 | 1016.3 |
| 20260506143346 | 58 | 47 | 0.0 | 3.0 | 0.00 | 0.00 | 0.00 | 92 | 1016.1 |
| 20260506142345 | 57 | 113 | 1.0 | 3.0 | 0.00 | 0.00 | 0.00 | 93 | 1016.2 |
| 20260506141345 | 57 | 117 | 0.0 | 3.0 | 0.00 | 0.00 | 0.00 | 93 | 1016.1 |
| 20260506140345 | 57 | 56 | 3.0 | 3.0 | 0.00 | 0.00 | 0.00 | 93 | 1016.0 |
| 20260506135345 | 56 | 76 | 0.0 | 3.0 | 0.00 | 0.00 | 0.00 | 93 | 1016.0 |
| 20260506133345 | 56 | 51 | 1.0 | 2.0 | 0.00 | 0.00 | 0.00 | 93 | 1015.9 |
| 20260506131346 | 56 | 32 | 1.0 | 3.0 | 0.00 | 0.00 | 0.00 | 93 | 1015.7 |
| 20260506130345 | 55 | 61 | 0.0 | 2.0 | 0.00 | 0.00 | 0.00 | 93 | 1015.5 |
| 20260506125345 | 55 | 94 | 1.0 | 2.0 | 0.00 | 0.00 | 0.00 | 93 | 1015.4 |
| 20260506124345 | 55 | 58 | 1.0 | 2.0 | 0.00 | 0.00 | 0.00 | 93 | 1015.3 |
| 20260506123346 | 55 | 110 | 1.0 | 2.0 | 0.00 | 0.00 | 0.00 | 93 | 1015.2 |
| 20260506122346 | 55 | 110 | 0.0 | 0.0 | 0.00 | 0.00 | 0.00 | 93 | 1015.1 |
| 20260506121345 | 55 | 110 | 0.0 | 1.0 | 0.00 | 0.00 | 0.00 | 93 | 1015.1 |
| 20260506120345 | 55 | 110 | 0.0 | 1.0 | 0.00 | 0.00 | 0.00 | 93 | 1015.1 |
| 20260506115345 | 55 | 110 | 0.0 | 0.0 | 0.00 | 0.00 | 0.00 | 92 | 1015.1 |
| 20260506114345 | 55 | 110 | 0.0 | 0.0 | 0.00 | 0.00 | 0.00 | 92 | 1015.0 |
| 20260506112345 | 56 | 110 | 0.0 | 0.0 | 0.00 | 0.00 | 0.00 | 92 | 1015.0 |
| 20260506111345 | 56 | 110 | 0.0 | 0.0 | 0.00 | 0.00 | 0.00 | 92 | 1014.9 |
| 20260506110347 | 56 | 110 | 0.0 | 0.0 | 0.00 | 0.00 | 0.00 | 92 | 1014.9 |
| 20260506105346 | 56 | 110 | 0.0 | 0.0 | 0.00 | 0.00 | 0.00 | 92 | 1014.9 |
| 20260506104345 | 56 | 110 | 0.0 | 2.0 | 0.00 | 0.00 | 0.00 | 92 | 1014.9 |
| 20260506103345 | 56 | 167 | 0.0 | 0.0 | 0.00 | 0.00 | 0.00 | 92 | 1014.9 |
| 20260506102345 | 57 | 167 | 0.0 | 1.0 | 0.00 | 0.00 | 0.00 | 91 | 1014.9 |
| 20260506101345 | 57 | 167 | 0.0 | 0.0 | 0.00 | 0.00 | 0.00 | 91 | 1014.9 |
| 20260506100345 | 57 | 167 | 0.0 | 0.0 | 0.00 | 0.00 | 0.00 | 91 | 1014.9 |
| 20260506095345 | 57 | 167 | 0.0 | 0.0 | 0.00 | 0.00 | 0.00 | 91 | 1014.9 |
| 20260506094345 | 58 | 167 | 0.0 | 0.0 | 0.00 | 0.00 | 0.00 | 90 | 1015.0 |
| 20260506091345 | 59 | 167 | 0.0 | 1.0 | 0.00 | 0.00 | 0.00 | 90 | 1015.1 |
| 20260506085345 | 59 | 167 | 0.0 | 2.0 | 0.00 | 0.00 | 0.00 | 91 | 1015.3 |
| 20260506083345 | 59 | 160 | 0.0 | 1.0 | 0.00 | 0.00 | 0.00 | 90 | 1015.4 |
| 20260506081345 | 60 | 159 | 1.0 | 3.0 | 0.00 | 0.00 | 0.00 | 90 | 1015.3 |
| 20260506080346 | 60 | 142 | 2.0 | 2.0 | 0.00 | 0.00 | 0.00 | 90 | 1015.4 |
| 20260506073346 | 60 | 182 | 0.0 | 2.0 | 0.00 | 0.00 | 0.00 | 89 | 1015.5 |
| 20260506072345 | 60 | 165 | 0.0 | 2.0 | 0.00 | 0.00 | 0.00 | 89 | 1015.4 |
| 20260506071345 | 60 | 136 | 0.0 | 3.0 | 0.00 | 0.00 | 0.00 | 89 | 1015.3 |
| 20260506070415 | 60 | 168 | 1.0 | 4.0 | 0.00 | 0.00 | 0.00 | 88 | 1015.3 |
| 20260506062345 | 60 | 171 | 0.0 | 2.0 | 0.00 | 0.00 | 0.00 | 88 | 1015.1 |
| 20260506061345 | 60 | 139 | 0.0 | 2.0 | 0.00 | 0.00 | 0.00 | 89 | 1015.0 |
| 20260506060345 | 60 | 150 | 0.0 | 4.0 | 0.00 | 0.00 | 0.00 | 88 | 1014.9 |
| 20260506051344 | 61 | 141 | 3.0 | 3.0 | 0.00 | 0.00 | 0.00 | 89 | 1014.6 |
| 20260506050345 | 61 | 249 | 3.0 | 3.0 | 0.00 | 0.00 | 0.00 | 88 | 1014.5 |
| 20260506043345 | 61 | 242 | 0.0 | 3.0 | 0.00 | 0.00 | 0.00 | 87 | 1014.1 |
| 20260506042344 | 61 | 234 | 2.0 | 3.0 | 0.00 | 0.00 | 0.00 | 86 | 1014.1 |
| 20260506033345 | 61 | 238 | 2.0 | 3.0 | 0.00 | 0.00 | 0.00 | 84 | 1013.2 |
| 20260506032344 | 61 | 268 | 1.0 | 4.0 | 0.00 | 0.00 | 0.00 | 84 | 1013.3 |
| 20260506031345 | 61 | 221 | 2.0 | 4.0 | 0.00 | 0.00 | 0.00 | 84 | 1013.3 |
| 20260506030344 | 61 | 223 | 3.0 | 3.0 | 0.00 | 0.00 | 0.00 | 83 | 1012.8 |
| 20260506025345 | 62 | 207 | 2.0 | 5.0 | 0.00 | 0.00 | 0.00 | 83 | 1012.7 |
| 20260506024344 | 62 | 223 | 5.0 | 5.0 | 0.00 | 0.00 | 0.00 | 83 | 1012.7 |
| 20260506023344 | 62 | 238 | 1.0 | 4.0 | 0.00 | 0.00 | 0.00 | 82 | 1012.6 |
| 20260506022344 | 63 | 223 | 2.0 | 4.0 | 0.00 | 0.00 | 0.00 | 82 | 1012.4 |
| 20260506021344 | 63 | 258 | 2.0 | 5.0 | 0.00 | 0.00 | 0.00 | 81 | 1012.4 |
| 20260506020344 | 63 | 254 | 3.0 | 5.0 | 0.00 | 0.00 | 0.00 | 81 | 1012.2 |
| 20260506014345 | 63 | 234 | 3.0 | 7.0 | 0.00 | 0.00 | 0.00 | 81 | 1012.2 |
| 20260506012344 | 63 | 283 | 3.0 | 5.0 | 0.00 | 0.00 | 0.00 | 81 | 1012.2 |
| 20260506011345 | 63 | 242 | 3.0 | 5.0 | 0.00 | 0.00 | 0.00 | 81 | 1012.4 |
| 20260506010344 | 63 | 156 | 2.0 | 6.0 | 0.00 | 0.00 | 0.00 | 80 | 1012.1 |
| 20260506005344 | 63 | 302 | 2.0 | 6.0 | 0.00 | 0.00 | 0.00 | 80 | 1012.2 |
| 20260506004344 | 64 | 220 | 3.0 | 5.0 | 0.00 | 0.00 | 0.00 | 78 | 1012.1 |
| 20260506003344 | 64 | 241 | 2.0 | 6.0 | 0.00 | 0.00 | 0.00 | 78 | 1012.2 |
| 20260506002345 | 64 | 238 | 5.0 | 8.0 | 0.00 | 0.00 | 0.00 | 77 | 1012.2 |
| 20260506000344 | 64 | 271 | 6.0 | 7.0 | 0.00 | 0.00 | 0.00 | 78 | 1012.3 |
| 20260505235344 | 63 | 263 | 4.0 | 8.0 | 0.00 | 0.00 | 0.00 | 79 | 1012.2 |
| 20260505234344 | 63 | 268 | 4.0 | 8.0 | 0.00 | 0.00 | 0.00 | 78 | 1012.2 |
| 20260505233344 | 64 | 217 | 5.0 | 7.0 | 0.00 | 0.00 | 0.00 | 77 | 1012.4 |
| 20260505231344 | 66 | 240 | 5.0 | 9.0 | 0.00 | 0.00 | 0.00 | 74 | 1012.4 |
| 20260505230344 | 66 | 275 | 3.0 | 9.0 | 0.00 | 0.00 | 0.00 | 73 | 1012.4 |
| 20260505225344 | 66 | 224 | 6.0 | 9.0 | 0.00 | 0.00 | 0.00 | 72 | 1012.5 |
| 20260505224344 | 65 | 236 | 3.0 | 8.0 | 0.00 | 0.00 | 0.00 | 72 | 1012.6 |
| 20260505222343 | 65 | 257 | 2.0 | 8.0 | 0.00 | 0.00 | 0.00 | 72 | 1012.6 |
| 20260505221344 | 65 | 265 | 3.0 | 8.0 | 0.00 | 0.00 | 0.00 | 71 | 1012.8 |
| 20260505215343 | 65 | 200 | 3.0 | 9.0 | 0.00 | 0.00 | 0.00 | 70 | 1012.8 |
| 20260505214343 | 65 | 226 | 5.0 | 9.0 | 0.00 | 0.00 | 0.00 | 71 | 1012.9 |
| 20260505213343 | 65 | 235 | 6.0 | 9.0 | 0.00 | 0.00 | 0.00 | 70 | 1013.0 |
| 20260505212344 | 64 | 274 | 2.0 | 7.0 | 0.00 | 0.00 | 0.00 | 72 | 1013.0 |
| 20260505211343 | 65 | 251 | 5.0 | 7.0 | 0.00 | 0.00 | 0.00 | 71 | 1013.1 |
| 20260505210343 | 65 | 252 | 2.0 | 8.0 | 0.00 | 0.00 | 0.00 | 71 | 1013.1 |
| 20260505205344 | 65 | 232 | 5.0 | 8.0 | 0.00 | 0.00 | 0.00 | 72 | 1013.1 |
| 20260505203343 | 65 | 207 | 4.0 | 11.0 | 0.00 | 0.00 | 0.00 | 71 | 1013.1 |
| 20260505201343 | 65 | 230 | 4.0 | 7.0 | 0.00 | 0.00 | 0.00 | 70 | 1013.1 |
| 20260505200413 | 65 | 277 | 4.0 | 9.0 | 0.00 | 0.00 | 0.00 | 70 | 1013.1 |
| 20260505195344 | 65 | 283 | 2.0 | 9.0 | 0.00 | 0.00 | 0.00 | 70 | 1013.1 |
| 20260505194344 | 65 | 216 | 6.0 | 9.0 | 0.00 | 0.00 | 0.00 | 73 | 1013.2 |
| 20260505193344 | 65 | 153 | 2.0 | 10.0 | 0.00 | 0.00 | 0.00 | 73 | 1013.2 |
| 20260505192343 | 64 | 188 | 4.0 | 9.0 | 0.00 | 0.00 | 0.00 | 73 | 1013.4 |
| 20260505190343 | 64 | 291 | 2.0 | 9.0 | 0.00 | 0.00 | 0.00 | 72 | 1013.4 |
| 20260505185343 | 64 | 287 | 4.0 | 8.0 | 0.00 | 0.00 | 0.00 | 73 | 1013.4 |
| 20260505184343 | 64 | 236 | 2.0 | 9.0 | 0.00 | 0.00 | 0.00 | 75 | 1013.4 |
| 20260505183413 | 63 | 252 | 5.0 | 9.0 | 0.00 | 0.00 | 0.00 | 75 | 1013.4 |
| 20260505182343 | 63 | 217 | 2.0 | 9.0 | 0.00 | 0.00 | 0.00 | 76 | 1013.4 |
| 20260505180343 | 63 | 340 | 1.0 | 9.0 | 0.00 | 0.00 | 0.00 | 77 | 1013.2 |
| 20260505175343 | 64 | 318 | 3.0 | 10.0 | 0.00 | 0.00 | 0.00 | 76 | 1013.1 |
| 20260505173413 | 63 | 25 | 3.0 | 9.0 | 0.00 | 0.00 | 0.00 | 79 | 1012.7 |
| 20260505172343 | 63 | 279 | 4.0 | 8.0 | 0.00 | 0.00 | 0.00 | 79 | 1012.6 |
| 20260505171343 | 62 | 174 | 0.0 | 8.0 | 0.00 | 0.00 | 0.00 | 81 | 1012.8 |
| 20260505170412 | 62 | 82 | 2.0 | 8.0 | 0.00 | 0.00 | 0.00 | 82 | 1012.6 |
| 20260505165413 | 63 | 273 | 2.0 | 9.0 | 0.00 | 0.00 | 0.00 | 81 | 1012.5 |
| 20260505164343 | 63 | 232 | 4.0 | 8.0 | 0.00 | 0.00 | 0.00 | 81 | 1012.6 |
| 20260505163343 | 62 | 339 | 8.0 | 9.0 | 0.00 | 0.00 | 0.00 | 83 | 1012.3 |
| 20260505162343 | 62 | 194 | 2.0 | 7.0 | 0.00 | 0.00 | 0.00 | 83 | 1012.2 |